Location: Newark
(15.4608°S, 41.1635°W)
Time: 05:26:05
(UTC+00:00)

Envisat - Pass Details

Date: 26 June 2021
Orbit: 764 x 766 km, 98.2° (Epoch: 27 July)

Event Time Altitude Azimuth Distance (km) Brightness Sun altitude
Rises 07:19:10 0° 20° (NNE) 3,210 6.8 -26.0°
Reaches altitude 10° 07:21:29 10° 24° (NNE) 2,290 6.0 -25.5°
Maximum altitude 07:26:27 61° 103° (ESE) 869 3.4 -24.4°
Enters shadow 07:29:58 20° 178° (S) 1,741 4.7 -23.6°
